When you browse on this site, cookies collect data to enhance your experience and personalize the content and advertising you see.
Visit our Privacy Policy to learn more. By continuing to use the site, you agree to this use of cookies and data.
  • In Romania
  • List of Countries
  • For 7 days
  • Water Temperature
  • Weather Map
  • Weather Widgets
  • user-avatar
    Login

    Hourly Weather Lankaran

    Today, 26 August, Monday

    Time Temperature Precipitation Wind Pressure Humidity
    00:00 +16°C° 0 mm 1 mps 634 mmHg 51%
    01:00 +14°C° 0 mm 0 mps 634 mmHg 52%
    02:00 +14°C° 0 mm 0 mps 634 mmHg 53%
    03:00 +14°C° 0 mm 0 mps 634 mmHg 55%
    04:00 +15°C° 0 mm 1 mps 634 mmHg 54%
    05:00 +16°C° 0 mm 1 mps 635 mmHg 53%
    06:00 +16°C° 0 mm 1 mps 635 mmHg 52%
    07:00 +18°C° 0 mm 2 mps 636 mmHg 45%
    08:00 +20°C° 0 mm 2 mps 637 mmHg 38%
    09:00 +22°C° 0 mm 3 mps 638 mmHg 32%
    10:00 +23°C° 0 mm 4 mps 638 mmHg 30%
    11:00 +25°C° 0 mm 4 mps 638 mmHg 29%
    12:00 +25°C° 0 mm 4 mps 638 mmHg 27%
    13:00 +25°C° 0 mm 5 mps 637 mmHg 29%
    14:00 +25°C° 0 mm 5 mps 637 mmHg 31%
    15:00 +23°C° 0 mm 5 mps 637 mmHg 34%
    16:00 +21°C° 0 mm 4 mps 636 mmHg 42%
    17:00 +19°C° 0 mm 4 mps 636 mmHg 51%
    18:00 +17°C° 0 mm 3 mps 635 mmHg 60%
    19:00 +16°C° 0 mm 3 mps 635 mmHg 62%
    20:00 +14°C° 0 mm 2 mps 635 mmHg 64%
    21:00 +13°C° 0 mm 2 mps 635 mmHg 66%
    22:00 +13°C° 0 mm 2 mps 635 mmHg 63%
    23:00 +13°C° 0 mm 2 mps 635 mmHg 59%

    Tomorrow, 27 August, Tuesday

    Time Temperature Precipitation Wind Pressure Humidity
    00:00 +13°C° 0 mm 1 mps 636 mmHg 55%
    01:00 +13°C° 0.1 mm 1 mps 635 mmHg 60%
    02:00 +12°C° 0.1 mm 1 mps 635 mmHg 65%
    03:00 +12°C° 0.1 mm 1 mps 635 mmHg 69%
    04:00 +12°C° 0.1 mm 1 mps 635 mmHg 70%
    05:00 +12°C° 0.1 mm 1 mps 635 mmHg 71%
    06:00 +13°C° 0.1 mm 1 mps 636 mmHg 71%
    07:00 +15°C° 0.1 mm 1 mps 636 mmHg 63%
    08:00 +17°C° 0.1 mm 2 mps 637 mmHg 55%
    09:00 +19°C° 0.1 mm 2 mps 637 mmHg 47%
    10:00 +20°C° 0 mm 3 mps 637 mmHg 45%
    11:00 +22°C° 0 mm 3 mps 637 mmHg 43%
    12:00 +24°C° 0 mm 3 mps 637 mmHg 41%
    13:00 +24°C° 0 mm 3 mps 636 mmHg 42%
    14:00 +24°C° 0 mm 3 mps 636 mmHg 44%
    15:00 +24°C° 0 mm 3 mps 635 mmHg 45%
    16:00 +22°C° 0 mm 3 mps 635 mmHg 52%
    17:00 +20°C° 0 mm 2 mps 634 mmHg 58%
    18:00 +18°C° 0 mm 2 mps 633 mmHg 65%
    19:00 +17°C° 0 mm 2 mps 633 mmHg 66%
    20:00 +16°C° 0 mm 1 mps 633 mmHg 67%
    21:00 +15°C° 0 mm 1 mps 633 mmHg 68%
    22:00 +15°C° 0 mm 1 mps 633 mmHg 66%
    23:00 +15°C° 0 mm 1 mps 633 mmHg 64%

    Day after tomorrow, 28 August, Wednesday

    Time Temperature Precipitation Wind Pressure Humidity
    00:00 +15°C° 0 mm 1 mps 633 mmHg 61%
    01:00 +15°C° 0 mm 1 mps 633 mmHg 62%
    02:00 +14°C° 0 mm 1 mps 633 mmHg 63%
    03:00 +14°C° 0 mm 1 mps 632 mmHg 64%
    04:00 +14°C° 0 mm 1 mps 633 mmHg 62%
    05:00 +15°C° 0 mm 1 mps 633 mmHg 61%
    06:00 +14°C° 0 mm 0 mps 634 mmHg 59%
    07:00 +18°C° 0 mm 1 mps 635 mmHg 52%
    08:00 +19°C° 0 mm 2 mps 635 mmHg 45%
    09:00 +21°C° 0 mm 2 mps 636 mmHg 38%
    10:00 +22°C° 0 mm 3 mps 636 mmHg 38%
    11:00 +24°C° 0 mm 3 mps 636 mmHg 38%
    12:00 +23°C° 0 mm 4 mps 637 mmHg 38%
    13:00 +23°C° 0 mm 4 mps 636 mmHg 39%
    14:00 +23°C° 0 mm 4 mps 636 mmHg 40%
    15:00 +22°C° 0 mm 4 mps 636 mmHg 42%
    16:00 +21°C° 0 mm 4 mps 635 mmHg 45%
    17:00 +19°C° 0 mm 3 mps 635 mmHg 49%
    18:00 +17°C° 0 mm 2 mps 634 mmHg 53%
    19:00 +16°C° 0 mm 2 mps 634 mmHg 54%
    20:00 +15°C° 0 mm 1 mps 634 mmHg 55%
    21:00 +14°C° 0 mm 1 mps 634 mmHg 55%
    22:00 +14°C° 0 mm 1 mps 634 mmHg 53%
    23:00 +14°C° 0 mm 1 mps 634 mmHg 51%

    29 August, Thursday

    Time Temperature Precipitation Wind Pressure Humidity
    00:00 +14°C° 0 mm 1 mps 634 mmHg 49%
    01:00 +14°C° 0 mm 1 mps 634 mmHg 50%
    02:00 +13°C° 0 mm 1 mps 634 mmHg 50%
    03:00 +13°C° 0 mm 1 mps 634 mmHg 51%
    04:00 +13°C° 0 mm 0 mps 634 mmHg 49%
    05:00 +13°C° 0 mm 0 mps 634 mmHg 48%
    06:00 +14°C° 0 mm 0 mps 635 mmHg 47%
    07:00 +18°C° 0 mm 1 mps 635 mmHg 42%
    08:00 +19°C° 0 mm 2 mps 636 mmHg 37%
    09:00 +23°C° 0 mm 2 mps 637 mmHg 33%
    10:00 +24°C° 0 mm 3 mps 637 mmHg 33%
    11:00 +24°C° 0 mm 3 mps 637 mmHg 34%
    12:00 +25°C° 0 mm 4 mps 637 mmHg 35%
    13:00 +25°C° 0 mm 4 mps 636 mmHg 38%
    14:00 +23°C° 0 mm 4 mps 636 mmHg 42%
    15:00 +23°C° 0 mm 4 mps 635 mmHg 45%
    16:00 +21°C° 0 mm 4 mps 635 mmHg 53%
    17:00 +18°C° 0 mm 3 mps 634 mmHg 61%
    18:00 +16°C° 0 mm 3 mps 634 mmHg 70%
    19:00 +15°C° 0 mm 2 mps 634 mmHg 75%
    20:00 +14°C° 0 mm 2 mps 634 mmHg 80%
    21:00 +12°C° 0 mm 1 mps 634 mmHg 86%
    22:00 +13°C° 0 mm 1 mps 634 mmHg 86%
    23:00 +13°C° 0 mm 1 mps 634 mmHg 86%

    30 August, Friday

    Time Temperature Precipitation Wind Pressure Humidity
    00:00 +12°C° 0 mm 0 mps 634 mmHg 86%
    01:00 +13°C° 0.1 mm 1 mps 634 mmHg 88%
    02:00 +13°C° 0.1 mm 1 mps 634 mmHg 91%
    03:00 +13°C° 0.1 mm 2 mps 634 mmHg 93%
    04:00 +13°C° 0.1 mm 2 mps 634 mmHg 93%
    05:00 +14°C° 0.1 mm 1 mps 634 mmHg 92%
    06:00 +14°C° 0.1 mm 1 mps 634 mmHg 92%
    07:00 +15°C° 0.1 mm 2 mps 634 mmHg 87%
    08:00 +16°C° 0.1 mm 2 mps 634 mmHg 83%
    09:00 +17°C° 0.1 mm 2 mps 635 mmHg 79%
    10:00 +18°C° 0.1 mm 3 mps 634 mmHg 78%
    11:00 +18°C° 0.1 mm 3 mps 634 mmHg 76%
    12:00 +19°C° 0.1 mm 4 mps 634 mmHg 75%
    13:00 +18°C° 0 mm 4 mps 633 mmHg 75%
    14:00 +18°C° 0 mm 4 mps 633 mmHg 75%
    15:00 +18°C° 0 mm 4 mps 632 mmHg 75%
    16:00 +18°C° 0.5 mm 3 mps 632 mmHg 78%
    17:00 +17°C° 0.5 mm 3 mps 632 mmHg 82%
    18:00 +16°C° 0.5 mm 2 mps 632 mmHg 85%
    19:00 +16°C° 0 mm 2 mps 632 mmHg 87%
    20:00 +15°C° 0 mm 2 mps 632 mmHg 90%
    21:00 +14°C° 0 mm 2 mps 631 mmHg 93%
    22:00 +14°C° 0.1 mm 2 mps 631 mmHg 94%
    23:00 +14°C° 0.1 mm 2 mps 631 mmHg 94%

    31 August, Saturday

    Time Temperature Precipitation Wind Pressure Humidity
    00:00 +14°C° 0.1 mm 2 mps 631 mmHg 95%
    01:00 +14°C° 0.1 mm 2 mps 631 mmHg 95%
    02:00 +14°C° 0.1 mm 2 mps 631 mmHg 95%
    03:00 +14°C° 0.1 mm 2 mps 631 mmHg 95%
    04:00 +14°C° 0.1 mm 2 mps 631 mmHg 95%
    05:00 +14°C° 0.1 mm 2 mps 631 mmHg 95%
    06:00 +13°C° 0.1 mm 3 mps 632 mmHg 94%
    07:00 +13°C° 0.2 mm 3 mps 632 mmHg 93%
    08:00 +14°C° 0.2 mm 3 mps 632 mmHg 91%
    09:00 +14°C° 0.2 mm 4 mps 633 mmHg 89%
    10:00 +14°C° 0.1 mm 4 mps 632 mmHg 88%
    11:00 +13°C° 0.1 mm 4 mps 632 mmHg 87%
    12:00 +13°C° 0.1 mm 4 mps 632 mmHg 87%
    13:00 +13°C° 0.3 mm 4 mps 632 mmHg 87%
    14:00 +13°C° 0.3 mm 4 mps 632 mmHg 88%
    15:00 +13°C° 0.3 mm 4 mps 632 mmHg 89%
    16:00 +12°C° 0.3 mm 4 mps 632 mmHg 90%
    17:00 +12°C° 0.3 mm 4 mps 633 mmHg 91%
    18:00 +11°C° 0.3 mm 4 mps 633 mmHg 92%
    19:00 +11°C° 0.4 mm 4 mps 633 mmHg 93%
    20:00 +11°C° 0.4 mm 4 mps 634 mmHg 93%
    21:00 +11°C° 0.4 mm 3 mps 634 mmHg 93%
    22:00 +11°C° 0.4 mm 3 mps 634 mmHg 93%
    23:00 +11°C° 0.4 mm 3 mps 634 mmHg 93%
    Show more